Weather in Manily

Russia / Kamchatka Krai     62°29′06″N   165°20′21″E
temp.,
°C
wind,
m/s
gust,
m/s
humid.,
%
clouds,
%
prec.,
mm/h
press.,
hPa
HPBL,
m
28 february, sun
sun2800:00−29ne23770 0.0 102921
03:00−30ne22790 0.0 102921
06:00−30ene23790 0.0 102921
09:00−30ene33790 0.0 102923
12:00−27e33820 0.0 1029165
15:00−25ene34810 0.0 1027199
18:00−29ne34830 0.0 102525
21:00−29ne44790 0.0 102430
1 march, mon
mon100:00−29nne448023 0.0 102143
03:00−26nne3377100 0.0 101682
06:00−25n3575100 0.0 1012127
09:00−23n3674100 0.0 1009146
12:00−22nne72171100 0.0 1007773
15:00−22nne92274100 0.0 1005780
18:00−22nne7207897 0.0 1004696
21:00−22nne7207698 0.0 1007694
2 march, tue
tue200:00−22nne5157699 0.0 1008398
03:00−22nne587570 0.0 1009123
06:00−23nne447342 0.0 101062
09:00−23nne45725 0.0 101359
12:00−19nne467249 0.0 1014196
15:00−18nne347572 0.0 1016105
18:00−21ne337487 0.0 101821
21:00−23ne227173 0.0 102120
3 march, wed
wed300:00−24ne227059 0.0 102320
03:00−25e1174100 0.0 102520
06:00−25ese1271100 0.0 102720
09:00−25e227291 0.0 102819
12:00−21e237383 0.0 1029117
15:00−21e347589 0.0 1027233
18:00−24ne447995 0.0 102460
21:00−23ne7877100 0.0 1021188
4 march, thu
thu400:00−21ne91895100 0.7 1014402
03:00−17ene112486100 2.6 1004539
06:00−17ene122682100 3.3 993603
09:00−14ene142888100 1.8 985571
12:00−13ene122493100 8.5 977498
15:00−9w3396100 8.7 973294
18:00−16s2291100 9.9 97429
21:00−18sw81684100 0.2 979649